Temp
19 19 20 20 16 14 16 19 19 20 21 23 23 23 23 22 23 21 22 21 21 20 18 17 16 15 15 14 14 14 13 13 13 11 11 12 12 11 11 11 11 11 11 10 11 11 11 11 12
19 19 20 19 15 15 16 18 20 20 22 23 23 23 23 23 22 23 23 22 20 19 18 17 16 15 14 14 14 14 13 13 12 12 12 13 12 11 11 11 11 11 11 10 11 10 11 10 11
19 19 19 13 12 15 16 18 18 21 23 23 23 23 23 23 23 23 22 22 20 20 18 17 16 15 15 14 14 14 13 14 13 12 13 13 12 11 11 11 11 11 11 12 12 11 11 11 11
19 19 17 14 16 17 18 18 19 19 23 23 23 22 23 23 23 23 23 22 20 19 18 17 16 15 14 14 14 14 14 13 13 12 12 13 12 11 11 11 11 12 12 13 13 12 13 13 12
19 18 13 14 15 17 17 19 20 19 22 23 23 22 23 24 24 24 23 22 21 19 18 17 16 15 15 14 14 14 14 14 13 12 12 12 12 11 10 12 11 12 12 12 13 14 13 13 14
18 16 13 13 15 16 16 20 18 20 21 22 23 21 23 24 24 24 23 22 21 19 18 17 16 15 15 14 14 14 14 14 13 12 11 11 11 11 11 11 11 11 12 12 13 13 13 13 14
16 12 14 14 14 16 19 20 19 18 21 23 24 21 23 24 23 23 23 21 20 19 18 18 17 16 15 14 14 14 14 14 14 13 12 12 11 11 12 12 12 12 13 14 14 14 13 13 14
17 13 15 13 14 16 18 19 20 20 21 23 23 21 22 24 24 23 23 21 20 19 19 18 17 16 16 16 15 15 15 15 15 13 15 15 13 12 13 14 14 14 15 14 13 13 13 13 13
17 13 12 14 15 16 18 16 20 21 21 22 23 23 23 24 23 23 23 22 21 20 20 19 18 17 16 16 16 15 16 16 16 16 16 16 15 15 15 15 15 15 15 14 13 13 13 13 13
15 12 14 15 16 16 17 17 19 19 20 21 23 23 23 24 24 24 24 23 22 21 21 19 19 18 17 17 17 17 17 17 17 16 16 16 15 15 15 16 15 15 15 15 15 14 13 13 13
14 13 15 16 18 18 17 17 19 19 18 21 22 22 22 22 23 23 23 23 22 21 21 20 19 18 17 17 17 17 17 17 17 17 17 16 16 16 16 16 16 16 16 15 15 14 14 14 14
15 16 16 17 18 17 16 18 18 19 20 22 22 22 22 22 22 23 23 23 21 21 21 20 19 19 18 17 17 17 17 17 17 17 17 16 17 16 17 17 17 16 15 15 14 14 13 13 13
14 15 17 18 18 18 18 16 16 18 21 21 21 22 22 23 23 23 22 22 21 21 20 20 19 19 19 18 17 17 17 17 17 17 17 17 17 16 16 16 15 15 15 14 14 14 14 13 13
16 16 17 17 18 17 16 17 17 20 21 21 21 22 22 22 22 22 21 21 20 20 20 19 19 19 19 18 18 17 17 17 17 17 17 17 16 16 16 15 15 15 14 14 14 13 13 13 13
17 15 15 16 17 16 18 16 16 21 20 21 21 22 22 22 21 21 20 21 20 21 21 20 20 19 19 18 18 18 18 17 18 18 17 17 17 16 16 16 16 15 15 14 14 14 13 13 13
16 15 14 16 16 17 18 15 16 20 19 20 20 20 21 21 21 20 20 21 21 21 21 21 20 19 19 19 18 18 18 17 17 17 17 17 16 16 16 16 16 15 14 14 14 14 13 13 13
14 13 13 14 15 17 16 15 16 19 19 20 19 19 19 19 18 19 19 20 20 21 21 21 21 20 19 18 18 18 18 17 17 17 17 17 16 15 15 15 14 14 14 13 13 13 13 12 12
13 14 13 13 15 15 15 14 16 18 19 18 17 18 18 18 18 18 19 19 19 19 19 20 20 20 19 18 18 18 17 17 17 17 17 16 15 15 14 14 14 13 13 13 13 12 12 12 12
14 14 14 13 14 15 13 14 15 16 17 15 16 16 17 17 16 16 17 18 18 19 19 19 19 19 19 18 18 18 18 17 17 16 16 16 15 14 14 13 13 13 13 12 12 12 12 12 12
14 14 13 14 15 15 15 14 14 15 15 15 15 16 16 16 16 16 17 17 18 18 18 18 18 18 18 18 18 16 16 16 15 15 15 14 14 13 13 13 12 12 12 12 12 12 12 12 12
13 13 13 14 14 15 15 14 15 16 15 15 15 15 15 15 16 16 16 16 16 17 17 17 17 17 17 17 16 16 15 14 14 14 14 14 13 13 12 12 12 12 12 12 12 12 12 12 13
13 13 14 14 14 14 14 13 13 14 14 13 14 15 15 15 15 15 16 16 16 15 15 16 16 16 15 15 15 14 14 14 13 13 13 12 12 12 11 11 11 11 12 12 12 12 11 11 11
13 14 14 14 14 13 14 13 13 13 13 12 11 14 14 15 15 15 15 15 15 15 15 14 15 15 14 14 14 14 13 13 12 12 12 12 12 11 11 11 11 11 11 10 10 11 11 10 10
15 14 12 11 11 11 12 13 14 12 15 13 12 13 15 15 15 15 15 15 15 14 14 14 14 14 13 13 13 13 13 12 12 12 12 12 11 11 11 11 11 11 11 11 10 10 10 10 9
13 13 12 12 11 12 12 12 16 15 13 14 12 13 15 15 15 15 14 15 14 14 13 13 13 13 12 12 12 12 12 12 11 11 11 11 11 11 11 10 10 10 10 10 10 10 10 10 9
12 13 11 13 11 12 12 12 15 13 13 16 16 15 15 15 15 14 14 14 14 13 12 12 12 12 12 12 12 12 11 11 11 10 10 10 9 9 9 9 9 9 9 9 8 8 8 8 8
13 13 13 13 12 11 12 13 15 12 11 11 13 14 14 15 14 14 14 13 13 12 12 12 12 11 11 11 11 11 11 11 11 10 9 9 8 8 8 8 8 8 8 7 7 6 6 6 6
14 13 13 10 14 14 12 13 14 14 12 10 10 12 14 14 13 13 13 12 12 12 11 11 11 11 11 11 11 10 10 9 9 9 9 8 8 7 7 7 7 6 6 5 5 5 5 5 4
13 13 11 11 11 12 12 13 13 15 11 11 11 14 15 14 14 13 12 12 11 11 10 10 10 10 10 10 9 9 9 9 8 8 7 7 6 6 6 6 5 5 5 4 4 4 3 3 3
13 13 12 11 13 9 9 12 12 11 11 12 13 14 14 14 14 13 12 11 11 10 10 10 10 9 9 9 8 8 8 8 7 6 6 6 5 5 5 5 4 4 4 3 3 3 2 1 2
Height
1521 1518 1516 1516 1526 1528 1531 1521 1511 1508 1503 1499 1498 1497 1495 1494 1495 1506 1491 1490 1490 1490 1490 1491 1493 1495 1497 1499 1500 1501 1501 1501 1501 1502 1503 1504 1504 1504 1503 1503 1502 1502 1501 1500 1500 1502 1503 1502 1502
1521 1518 1516 1517 1531 1539 1534 1515 1511 1507 1502 1500 1498 1496 1494 1494 1493 1492 1491 1491 1490 1489 1490 1490 1492 1495 1496 1497 1499 1499 1499 1500 1500 1501 1503 1504 1504 1504 1503 1503 1502 1502 1500 1499 1499 1500 1502 1500 1502
1520 1519 1518 1522 1535 1537 1530 1511 1507 1502 1501 1499 1498 1497 1495 1493 1492 1492 1492 1490 1490 1490 1490 1491 1492 1495 1496 1497 1498 1498 1498 1498 1499 1500 1502 1503 1504 1503 1503 1502 1501 1500 1498 1498 1498 1499 1499 1499 1499
1520 1521 1522 1528 1529 1521 1516 1508 1503 1502 1498 1497 1497 1497 1494 1492 1492 1492 1492 1491 1491 1490 1491 1491 1492 1495 1496 1496 1497 1497 1497 1498 1499 1500 1502 1503 1503 1502 1502 1501 1500 1498 1498 1497 1497 1498 1497 1498 1498
1521 1522 1531 1532 1527 1517 1511 1507 1505 1501 1500 1496 1496 1495 1493 1490 1491 1491 1492 1491 1491 1491 1491 1491 1492 1494 1495 1495 1496 1496 1497 1497 1498 1500 1501 1502 1503 1503 1500 1500 1499 1497 1497 1497 1497 1497 1496 1497 1497
1522 1524 1537 1539 1528 1518 1511 1507 1503 1500 1496 1496 1495 1496 1491 1489 1490 1490 1491 1492 1491 1491 1491 1491 1492 1494 1495 1495 1495 1496 1496 1496 1497 1498 1498 1500 1501 1501 1500 1499 1498 1497 1496 1496 1496 1495 1495 1495 1495
1524 1529 1534 1533 1530 1520 1508 1505 1501 1500 1496 1493 1492 1495 1491 1488 1489 1490 1490 1491 1491 1490 1490 1490 1491 1493 1494 1494 1495 1495 1495 1495 1495 1496 1497 1498 1499 1499 1499 1499 1498 1497 1496 1495 1494 1494 1494 1494 1494
1523 1526 1531 1531 1529 1520 1507 1504 1501 1499 1495 1495 1493 1492 1491 1488 1489 1489 1489 1491 1490 1490 1489 1489 1490 1492 1492 1493 1494 1494 1495 1495 1495 1495 1496 1497 1497 1497 1497 1497 1496 1495 1495 1494 1494 1494 1493 1493 1493
1523 1533 1536 1527 1523 1514 1507 1507 1500 1500 1498 1495 1492 1491 1491 1489 1489 1489 1488 1489 1488 1488 1488 1489 1490 1491 1492 1492 1493 1493 1493 1494 1494 1494 1495 1495 1496 1496 1496 1495 1495 1494 1493 1493 1492 1492 1492 1491 1490
1522 1531 1524 1516 1512 1511 1507 1507 1504 1501 1497 1493 1492 1491 1489 1489 1488 1488 1487 1487 1487 1487 1487 1488 1489 1490 1491 1491 1492 1492 1493 1493 1494 1494 1494 1494 1494 1495 1495 1494 1493 1493 1492 1491 1491 1490 1490 1489 1488
1518 1522 1514 1511 1510 1509 1507 1504 1504 1501 1497 1494 1492 1489 1488 1488 1487 1486 1486 1487 1487 1488 1487 1487 1488 1490 1490 1491 1491 1491 1491 1492 1493 1493 1493 1493 1493 1493 1493 1493 1492 1491 1491 1490 1490 1489 1488 1487 1485
1518 1512 1511 1509 1508 1508 1506 1502 1499 1498 1493 1491 1490 1488 1485 1485 1485 1484 1485 1486 1487 1486 1487 1487 1487 1488 1489 1489 1490 1490 1491 1491 1492 1492 1492 1492 1492 1491 1491 1491 1491 1490 1490 1489 1489 1487 1486 1484 1483
1514 1511 1509 1507 1505 1504 1502 1498 1498 1491 1490 1489 1487 1486 1483 1482 1482 1482 1483 1485 1486 1485 1486 1486 1487 1487 1487 1487 1488 1489 1489 1490 1491 1491 1491 1491 1490 1490 1490 1489 1489 1489 1488 1487 1486 1485 1483 1482 1481
1508 1508 1507 1504 1501 1501 1500 1494 1494 1484 1486 1485 1484 1483 1481 1480 1481 1482 1482 1483 1484 1485 1484 1485 1484 1484 1485 1485 1486 1487 1488 1489 1489 1490 1490 1489 1488 1489 1488 1487 1487 1486 1485 1485 1483 1481 1480 1478 1477
1507 1510 1505 1500 1497 1496 1496 1493 1487 1481 1483 1481 1478 1478 1478 1478 1479 1480 1481 1481 1481 1481 1481 1481 1481 1482 1482 1483 1484 1484 1485 1487 1487 1487 1488 1487 1487 1486 1486 1484 1483 1482 1482 1480 1479 1477 1475 1473 1472
1507 1510 1513 1498 1495 1492 1494 1495 1480 1480 1482 1478 1473 1474 1476 1477 1477 1478 1478 1478 1477 1477 1476 1477 1477 1478 1479 1480 1481 1482 1483 1484 1484 1484 1484 1484 1484 1484 1483 1482 1480 1479 1477 1476 1474 1472 1469 1466 1464
1509 1518 1515 1506 1492 1492 1492 1492 1474 1478 1479 1475 1474 1474 1476 1477 1478 1477 1477 1476 1475 1473 1472 1472 1472 1473 1475 1477 1477 1479 1480 1481 1481 1481 1481 1481 1481 1481 1479 1478 1476 1474 1472 1470 1468 1465 1463 1460 1456
1511 1513 1512 1511 1496 1494 1493 1489 1476 1476 1478 1475 1474 1475 1476 1477 1477 1477 1476 1475 1473 1471 1471 1470 1469 1470 1472 1473 1474 1475 1476 1477 1478 1478 1478 1478 1478 1477 1475 1473 1471 1469 1467 1464 1461 1459 1457 1453 1450
1503 1506 1508 1503 1495 1497 1493 1488 1479 1475 1475 1475 1474 1475 1477 1478 1479 1478 1476 1474 1473 1472 1471 1469 1468 1468 1469 1470 1471 1471 1472 1474 1475 1475 1475 1475 1474 1473 1471 1469 1466 1464 1461 1458 1456 1453 1450 1447 1445
1502 1506 1508 1500 1491 1493 1487 1487 1478 1475 1474 1474 1473 1475 1477 1478 1479 1477 1477 1475 1474 1474 1473 1472 1470 1469 1469 1468 1468 1469 1470 1471 1472 1472 1471 1470 1469 1468 1466 1464 1461 1458 1455 1452 1450 1448 1444 1440 1440
1502 1507 1507 1507 1496 1489 1489 1488 1478 1473 1473 1474 1475 1476 1477 1479 1479 1478 1478 1476 1476 1476 1475 1473 1472 1471 1469 1468 1468 1468 1468 1468 1468 1468 1468 1467 1465 1463 1462 1459 1456 1453 1450 1447 1445 1442 1439 1435 1434
1502 1497 1499 1503 1506 1509 1494 1509 1483 1475 1475 1475 1474 1475 1477 1478 1480 1479 1479 1478 1477 1477 1478 1476 1475 1473 1472 1470 1468 1468 1468 1468 1468 1468 1467 1465 1464 1462 1460 1457 1454 1451 1447 1443 1440 1437 1433 1430 1425
1496 1491 1498 1500 1504 1504 1500 1508 1481 1476 1478 1475 1474 1475 1476 1477 1480 1479 1479 1479 1479 1480 1480 1479 1477 1476 1474 1472 1471 1471 1470 1470 1469 1468 1467 1466 1464 1461 1458 1455 1451 1448 1444 1441 1437 1433 1430 1427 1423
1487 1494 1501 1505 1509 1517 1501 1501 1482 1479 1465 1471 1471 1474 1474 1476 1479 1479 1480 1480 1480 1480 1480 1480 1479 1477 1476 1475 1473 1472 1471 1470 1469 1468 1466 1463 1461 1458 1455 1452 1448 1445 1441 1437 1433 1429 1426 1422 1418
1491 1500 1518 1519 1520 1514 1495 1501 1470 1460 1459 1458 1464 1469 1473 1476 1478 1479 1480 1480 1481 1480 1481 1481 1480 1478 1478 1476 1475 1473 1472 1470 1468 1466 1463 1460 1457 1454 1450 1447 1444 1440 1436 1432 1428 1423 1420 1415 1410
1490 1491 1511 1514 1519 1507 1496 1496 1467 1457 1454 1454 1459 1466 1472 1475 1478 1479 1480 1481 1481 1481 1481 1481 1481 1480 1478 1477 1475 1474 1473 1470 1468 1465 1462 1459 1455 1451 1447 1443 1439 1435 1430 1426 1422 1417 1413 1408 1404
1486 1492 1488 1497 1503 1509 1492 1476 1459 1458 1456 1454 1459 1466 1470 1474 1477 1479 1480 1480 1480 1480 1481 1481 1481 1480 1478 1477 1475 1474 1472 1469 1466 1463 1460 1456 1452 1447 1442 1438 1433 1429 1424 1420 1415 1410 1405 1401 1397
1473 1478 1495 1505 1504 1503 1493 1486 1472 1459 1461 1460 1462 1463 1468 1473 1476 1478 1479 1479 1479 1480 1481 1481 1480 1479 1478 1477 1475 1472 1470 1467 1464 1461 1456 1452 1447 1442 1437 1432 1428 1423 1418 1414 1409 1404 1400 1395 1391
1478 1482 1488 1492 1500 1501 1502 1485 1462 1457 1457 1459 1460 1462 1467 1471 1474 1476 1477 1478 1479 1480 1480 1480 1479 1479 1477 1475 1473 1471 1468 1465 1461 1457 1452 1447 1443 1438 1433 1428 1423 1418 1413 1408 1403 1399 1394 1389 1384
1468 1475 1480 1494 1494 1503 1504 1486 1460 1456 1453 1458 1461 1465 1470 1472 1473 1474 1476 1477 1478 1478 1479 1479 1478 1477 1475 1473 1471 1468 1465 1461 1457 1453 1449 1444 1440 1435 1430 1425 1420 1414 1409 1404 1399 1393 1389 1384 1378
Wind_Speed
17 19 12 2 3 4 2 4 2 6 4 4 5 4 2 1 2 3 3 2 3 2 3 9 14 13 13 12 9 9 8 7 6 5 4 3 5 5 5 7 3 4 5 3 5 6 8 5 5
17 16 4 1 4 3 4 4 3 4 9 9 2 3 2 3 2 5 4 5 3 2 3 7 12 14 15 13 10 9 8 8 7 8 5 6 6 4 6 5 9 5 5 7 7 6 8 10 7
15 10 3 4 2 4 5 4 5 9 17 6 3 3 2 2 3 5 5 5 3 2 2 5 10 15 16 11 9 9 8 8 7 8 6 8 7 8 8 7 9 10 9 6 5 8 10 10 11
11 4 4 3 3 5 4 7 7 8 11 8 4 5 3 4 2 4 6 5 2 2 2 4 8 12 12 11 9 8 8 6 9 4 6 8 9 7 9 8 6 5 7 6 5 8 8 6 13
8 3 4 2 4 4 5 10 15 7 6 6 7 5 4 5 6 5 5 4 2 2 3 3 6 9 10 10 10 9 9 8 10 8 11 10 11 9 12 8 7 7 7 6 7 7 10 12 10
3 2 3 3 5 5 7 8 14 5 4 5 3 2 5 6 6 4 4 3 2 2 3 3 4 7 9 10 10 9 8 8 10 12 12 14 10 14 15 14 11 8 7 7 8 9 10 12 12
3 3 3 3 4 6 4 21 9 8 5 3 4 2 5 9 9 6 4 6 5 4 4 3 4 6 9 11 12 11 11 10 10 9 10 13 14 16 14 14 12 10 8 9 9 11 11 12 13
1 4 2 4 2 6 4 21 13 15 4 8 2 4 5 5 9 8 7 9 9 7 5 4 5 7 8 10 11 11 12 12 10 10 10 8 13 16 13 12 11 10 10 10 11 12 13 13 14
3 2 3 4 4 5 9 8 10 15 9 14 5 7 8 6 12 11 11 13 12 11 8 7 6 8 8 8 9 11 11 11 10 10 9 9 9 9 10 10 10 10 11 12 14 15 15 16 16
5 3 7 6 3 5 14 11 22 9 18 7 7 7 10 9 15 15 13 14 15 12 10 9 9 9 9 9 8 9 10 10 10 10 10 10 10 10 10 9 9 10 10 11 13 15 16 18 17
6 5 4 7 15 13 7 16 13 6 6 12 11 18 18 13 18 17 16 16 17 13 13 13 12 11 12 11 9 9 9 10 9 10 10 10 10 10 10 10 10 11 12 13 14 15 16 17 18
3 11 14 8 15 9 7 16 10 17 23 17 17 19 19 17 20 19 18 18 19 18 17 16 16 16 15 14 13 11 12 11 11 10 11 12 12 12 11 11 12 14 14 16 16 17 18 19 20
3 6 12 19 22 19 18 14 12 21 25 25 16 21 18 18 20 17 19 19 20 22 20 20 19 19 18 19 18 16 14 13 12 13 14 14 14 15 16 17 18 18 19 19 20 21 22 22 22
6 13 17 17 27 14 8 15 7 10 18 22 24 20 15 16 20 20 20 20 20 21 21 21 22 21 21 21 21 20 17 14 15 16 15 16 17 19 20 22 23 23 23 23 25 26 27 28 27
5 4 7 12 17 8 3 9 9 30 19 22 24 19 15 15 16 19 18 18 18 18 17 19 21 22 22 20 20 21 20 19 18 18 17 18 20 22 22 24 26 27 28 29 30 31 32 33 33
3 2 3 4 3 5 11 12 12 23 16 17 10 8 8 10 10 14 14 15 18 19 21 20 21 22 21 21 20 19 20 21 21 21 20 21 22 24 26 27 29 30 31 32 33 34 36 38 38
1 3 4 8 5 1 4 7 12 9 7 17 5 4 4 3 3 1 4 8 11 13 15 17 20 22 20 21 22 20 21 21 21 21 22 23 24 26 27 29 30 31 32 34 35 36 37 39 41
5 3 6 6 4 1 3 12 14 12 7 9 5 9 8 7 6 5 5 5 7 10 11 11 10 14 17 19 22 23 23 22 22 22 24 25 26 26 28 29 30 30 32 33 34 35 35 37 38
4 4 3 5 6 5 9 10 14 11 11 6 13 12 11 10 10 10 11 11 12 11 8 7 8 8 8 12 20 23 25 25 24 25 27 27 26 26 28 30 29 28 30 30 32 34 35 35 34
3 2 5 8 4 4 3 9 10 4 5 9 15 13 10 12 11 12 13 14 16 16 15 12 10 9 8 4 6 14 19 21 20 21 20 19 21 24 26 26 27 28 30 30 30 32 35 36 30
5 5 4 6 8 3 5 7 6 2 2 8 9 10 11 12 13 14 14 16 16 17 18 17 16 13 12 10 7 4 7 9 12 13 14 15 16 17 18 20 21 22 24 27 27 28 30 35 34
9 8 4 6 4 3 3 5 5 4 4 4 9 12 13 12 12 14 15 16 16 17 16 14 13 14 14 12 9 7 7 7 8 10 10 10 10 11 12 14 16 17 19 21 21 22 25 29 34
8 6 7 5 4 3 2 2 6 3 7 8 9 13 14 13 11 14 14 14 14 13 12 12 11 12 13 13 13 12 11 11 9 8 8 9 9 11 13 14 16 18 19 20 21 23 23 25 30
2 4 5 3 3 2 8 7 5 5 10 5 6 14 16 15 13 12 12 11 10 9 8 9 10 11 10 10 10 10 10 9 9 11 13 15 17 19 20 21 21 22 23 24 24 24 25 26 27
5 5 1 2 1 6 1 3 9 5 7 11 13 21 19 15 13 12 10 8 7 6 7 7 8 8 9 10 11 12 12 12 14 16 19 21 24 25 26 26 26 27 27 29 30 30 29 28 29
7 7 5 6 4 4 4 6 6 5 9 17 29 26 20 17 13 11 9 6 4 3 3 5 7 8 9 11 13 13 13 14 16 18 20 22 23 24 26 28 29 30 31 32 31 32 32 32 32
5 4 5 2 0 1 4 7 4 5 5 11 24 26 22 18 14 12 9 6 4 2 1 4 6 7 10 12 13 14 15 17 20 21 23 25 27 29 31 33 34 35 36 35 34 34 33 32 32
6 7 3 2 3 4 4 5 5 2 3 4 10 23 24 19 14 12 10 8 5 3 1 2 3 8 11 13 14 16 17 19 22 24 27 29 31 32 33 34 34 34 34 34 33 33 33 31 29
2 2 4 4 4 3 2 6 5 4 8 11 10 27 25 18 15 13 12 10 8 6 4 4 6 9 12 14 16 18 21 24 26 28 29 30 30 31 32 33 34 34 34 34 33 33 31 27 31
2 7 6 4 4 2 3 6 4 6 7 12 18 21 16 13 14 14 13 11 10 9 7 6 7 11 13 15 18 22 25 27 28 27 28 30 32 32 33 33 33 34 34 33 33 33 30 34 38
Wind_Direction
336 333 329 288 62 65 268 263 258 292 304 319 312 237 214 44 162 225 330 255 292 283 201 186 190 194 203 215 228 248 262 273 280 175 194 224 271 229 230 199 213 212 255 212 172 203 199 212 217
335 336 330 68 96 89 265 254 255 254 284 307 266 294 355 289 289 301 310 296 283 276 221 191 189 193 207 222 235 249 270 267 256 197 166 225 267 227 233 234 216 213 226 238 211 184 208 215 194
332 330 338 86 96 172 216 242 266 286 305 277 299 273 246 261 298 301 309 313 259 255 212 191 193 198 217 240 244 258 258 268 211 161 205 233 249 262 252 251 261 244 246 279 220 195 223 212 204
337 319 43 85 246 251 231 265 281 311 305 245 255 272 267 239 270 283 314 300 252 229 196 193 205 215 222 240 250 260 263 245 197 184 200 225 245 252 248 272 289 281 265 271 266 233 240 250 232
335 2 39 350 268 265 278 294 325 275 271 225 203 250 247 238 244 277 292 280 274 236 203 200 212 221 231 246 251 264 262 257 210 198 209 223 247 240 257 288 287 279 273 276 279 271 261 261 267
342 50 44 281 264 299 285 314 317 284 293 294 190 187 247 210 224 249 274 250 252 252 235 222 216 235 254 261 258 267 278 271 230 216 216 220 223 235 261 291 288 277 265 279 278 280 278 273 271
113 78 218 253 279 291 247 341 344 318 273 261 216 209 273 223 207 221 247 233 236 231 248 258 253 260 266 266 260 266 280 279 265 238 238 230 231 247 262 274 280 283 280 288 284 283 280 276 274
156 92 234 247 243 272 304 342 333 339 340 345 247 235 283 296 211 212 232 233 235 235 248 264 270 274 281 270 259 267 278 283 273 243 257 253 244 254 267 277 281 285 289 291 290 288 284 280 273
174 74 241 253 207 261 318 358 324 333 306 322 270 282 286 288 214 222 229 231 235 237 243 246 263 270 278 270 263 265 273 276 270 261 263 261 265 274 277 285 276 285 291 293 291 288 286 283 281
160 155 226 217 230 261 304 312 310 316 322 318 293 308 304 263 224 232 239 241 244 243 253 248 255 264 266 267 266 266 267 267 265 260 262 264 270 276 277 281 279 286 295 298 296 295 294 287 285
183 206 221 254 261 288 290 301 307 279 289 288 282 312 321 260 228 238 248 250 256 259 254 254 257 261 261 265 270 265 263 257 257 254 259 265 268 272 280 284 288 292 297 302 301 299 301 299 290
193 249 243 271 280 297 272 291 279 262 266 291 289 305 288 266 245 254 259 257 256 261 260 259 260 261 264 264 262 266 258 261 261 262 260 264 268 270 276 284 287 290 294 297 298 300 297 296 293
219 263 266 269 279 279 283 264 258 269 276 282 278 303 292 263 264 268 263 264 263 265 267 267 267 267 267 267 264 264 264 266 270 270 264 264 270 273 274 277 281 286 291 293 298 300 299 296 295
216 246 268 277 280 271 261 278 276 264 278 280 286 287 286 265 263 264 265 268 272 276 275 270 269 270 267 268 269 269 268 272 270 269 273 274 278 281 282 285 287 289 292 294 296 297 295 293 290
246 286 303 259 268 247 233 290 242 271 283 292 277 270 279 278 271 270 278 277 282 280 278 271 269 267 268 273 276 275 276 271 272 276 278 281 283 286 289 290 289 291 294 296 296 295 294 292 292
177 109 285 280 287 271 173 268 278 278 275 304 333 271 274 278 273 271 275 280 284 281 274 270 265 266 269 270 277 281 282 281 281 282 285 285 286 289 292 294 297 300 298 298 296 296 293 292 291
33 211 230 307 233 221 188 271 268 260 275 315 345 119 119 124 115 336 297 291 288 292 291 283 267 260 264 271 274 280 283 281 285 288 291 294 292 293 295 299 303 302 299 297 296 294 293 293 293
193 179 256 244 292 16 280 261 271 281 307 311 146 144 134 109 73 42 13 346 330 318 313 319 308 273 265 261 263 268 273 276 280 287 291 294 297 299 299 300 303 302 299 297 297 296 295 293 292
176 179 232 257 249 225 234 254 267 292 292 183 160 148 129 107 88 81 73 63 54 46 28 352 351 341 326 289 271 270 273 276 280 286 291 295 295 295 296 296 297 299 297 298 299 299 298 297 298
184 209 269 293 323 186 272 261 267 279 236 201 167 151 136 117 106 91 82 75 67 62 58 54 41 27 20 1 281 269 274 278 287 291 296 294 290 291 292 293 295 296 296 296 297 299 300 298 301
221 201 239 229 318 293 330 293 260 235 162 172 164 144 133 122 110 101 91 79 73 63 54 47 40 32 25 24 21 330 292 292 292 297 301 304 305 302 300 299 300 301 302 299 300 303 302 299 297
226 198 216 268 309 250 27 282 291 218 186 196 161 150 141 129 114 105 97 88 76 67 58 49 44 42 43 36 25 22 25 19 15 353 344 334 323 320 319 318 317 316 319 316 309 305 305 305 303
222 154 202 228 223 357 295 326 263 148 224 213 199 167 147 135 129 115 104 92 80 71 61 55 47 48 46 43 46 47 50 50 39 25 7 2 354 341 335 333 331 328 327 324 319 314 310 303 300
105 94 52 63 70 291 225 177 262 200 215 175 185 178 155 148 139 124 110 99 86 77 60 42 32 40 39 35 37 33 28 20 2 353 344 338 332 328 325 322 321 319 317 316 315 311 307 306 304
104 108 344 329 313 228 161 157 259 243 228 185 177 178 165 157 149 139 130 114 99 73 50 38 33 39 35 24 17 13 7 357 350 345 340 334 330 327 324 323 321 320 318 314 312 310 308 304 301
172 161 164 203 208 257 105 234 250 276 291 194 179 170 164 163 160 150 140 131 116 80 51 31 21 20 16 8 4 358 351 348 344 340 336 332 326 323 320 318 318 318 317 316 313 311 309 308 306
184 172 175 77 43 13 233 289 284 358 39 143 156 167 172 171 170 159 150 162 162 147 48 356 356 359 356 356 352 348 345 339 337 332 327 324 322 322 321 320 321 321 321 321 319 317 315 314 316
147 164 91 32 245 248 281 281 250 326 191 149 153 175 181 182 169 163 167 186 197 218 246 286 329 343 346 342 340 339 334 331 329 326 323 322 321 322 323 324 324 325 325 325 325 324 322 321 317
102 141 64 130 150 201 296 271 224 262 199 187 181 185 188 185 176 174 191 200 207 208 217 263 305 326 333 335 335 333 330 328 327 326 325 325 326 328 328 327 326 326 325 325 325 326 327 324 315
149 170 157 141 221 211 160 276 330 296 186 173 191 193 195 192 185 195 202 198 197 214 235 267 310 326 329 333 335 334 331 326 324 326 328 330 329 329 329 329 328 328 328 326 325 325 326 317 321